TimePDT,TemperatureF,Dew PointF,Humidity,Sea Level PressureIn,VisibilityMPH,Wind Direction,Wind SpeedMPH,Gust SpeedMPH,PrecipitationIn,Events,Conditions,WindDirDegrees,DateUTC
12:56 AM,34.0,30.9,89,30.12,10.0,SSE,4.6,-,N/A,,Clear,150,2013-10-31 07:56:00
1:56 AM,34.0,30.9,89,30.12,10.0,SE,4.6,-,N/A,,Clear,140,2013-10-31 08:56:00
2:56 AM,32.0,30.0,92,30.13,10.0,South,6.9,-,N/A,,Clear,170,2013-10-31 09:56:00
3:56 AM,32.0,30.0,92,30.13,10.0,South,4.6,-,N/A,,Clear,170,2013-10-31 10:56:00
4:56 AM,32.0,28.9,88,30.14,10.0,Calm,Calm,-,N/A,,Clear,0,2013-10-31 11:56:00
5:56 AM,30.9,28.9,92,30.15,10.0,SSW,3.5,-,N/A,,Clear,200,2013-10-31 12:56:00
6:13 AM,30.2,28.4,93,30.27,10.0,Calm,Calm,-,N/A,,Clear,0,2013-10-31 13:13:00
6:56 AM,30.9,28.0,89,30.16,10.0,Calm,Calm,-,N/A,,Clear,0,2013-10-31 13:56:00
7:56 AM,30.9,30.0,96,30.17,10.0,South,3.5,-,N/A,,Clear,190,2013-10-31 14:56:00
8:56 AM,35.1,32.0,89,30.19,10.0,Calm,Calm,-,0.01,,Clear,0,2013-10-31 15:56:00
9:56 AM,39.9,34.0,79,30.20,10.0,Calm,Calm,-,N/A,,Clear,0,2013-10-31 16:56:00
10:56 AM,45.0,35.1,68,30.20,10.0,Calm,Calm,-,N/A,,Clear,0,2013-10-31 17:56:00
11:56 AM,48.0,35.1,61,30.20,10.0,Calm,Calm,-,N/A,,Partly Cloudy,0,2013-10-31 18:56:00
12:56 PM,51.1,36.0,56,30.18,10.0,Calm,Calm,-,N/A,,Partly Cloudy,0,2013-10-31 19:56:00
1:56 PM,53.6,33.8,47,30.02,10.0,Calm,Calm,-,N/A,,Partly Cloudy,0,2013-10-31 20:56:00
2:56 PM,54.0,35.1,49,30.14,10.0,Calm,Calm,-,N/A,,Partly Cloudy,0,2013-10-31 21:56:00
3:56 PM,55.0,35.1,47,30.13,10.0,ENE,3.5,-,N/A,,Partly Cloudy,70,2013-10-31 22:56:00
4:56 PM,55.0,30.0,38,30.12,10.0,Calm,Calm,-,N/A,,Clear,0,2013-10-31 23:56:00
5:56 PM,52.0,34.0,50,30.12,10.0,North,3.5,-,N/A,,Clear,10,2013-11-01 00:56:00
6:56 PM,46.9,36.0,66,30.13,10.0,NE,6.9,-,N/A,,Clear,40,2013-11-01 01:56:00
7:56 PM,43.0,36.0,76,30.14,10.0,NE,6.9,-,N/A,,Clear,50,2013-11-01 02:56:00
8:56 PM,39.9,36.0,86,30.15,10.0,Variable,3.5,-,N/A,,Clear,0,2013-11-01 03:56:00
9:56 PM,39.9,37.0,89,30.17,10.0,Calm,Calm,-,N/A,,Clear,0,2013-11-01 04:56:00
10:56 PM,37.9,35.1,89,30.17,10.0,North,-9999.0,-,N/A,,Clear,0,2013-11-01 05:56:00
11:56 PM,35.1,33.1,92,30.17,9.0,South,5.8,-,N/A,,Clear,180,2013-11-01 06:56:00